Regional Weather Roundup
Issued by NWS

Home | Current Version | Previous Version | Text Only | Print | Product List | Glossary Off
Versions: 1 2 3 4 5 6 7 8 9 10 11 12 13 14 15 16 17 18 19 20 21 22 23 24 25 26 27 28 29 30 31 32 33 34 35 36 37 38 39 40 41 42 43 44 45 46 47 48 49 50

000
ASUS45 KSLC 251010
RWRUT

UTAH REGIONAL WEATHER ROUNDUP
NATIONAL WEATHER SERVICE SALT LAKE CITY UT
300 AM MST SAT FEB 25 2017

UTZ001>011-023>025-251100-

NORTHERN UTAH

CITY           SKY/WX    TMP DP  RH WIND       PRES   REMARKS
BRIGHAM CITY     N/A     24  19  81 NW3       30.13F
HILL AFB       MOCLDY    18  12  79 E13       30.10F WCI   4
LOGAN          FLURRIES  19  14  81 CALM      30.12F
OGDEN          MOCLDY    18  16  92 S9        30.11F WCI   7
SALT LAKE CITY MOCLDY    23  12  62 SE8       30.12F WCI  14
TOOELE VALLEY  MOCLDY    23  16  74 S12       30.12F WCI  12
WENDOVER       PTCLDY    21  12  68 CALM      30.11F
HEBER CITY     CLOUDY     3   0  85 CALM      30.10S
WEST JORDAN    MOCLDY    25  23  91 S12       30.12F WCI  14

$$

UTZ011>015-024>027-251100-

CENTRAL/NORTHEAST UTAH

CITY           SKY/WX    TMP DP  RH WIND       PRES   REMARKS
PROVO AIRPORT  PTCLDY    10   5  80 S7        30.15S WCI  -1
MOAB/CANYONLAN CLEAR     21  10  62 N5        30.10F WCI  15
DELTA          CLEAR     14  10  85 CALM      30.11S
PRICE          PTCLDY    15   8  73 CALM      30.05F
ROOSEVELT      CLEAR     16  10  79 CALM      30.11F
VERNAL         CLOUDY    14   8  77 CALM      30.08S

$$

UTZ013>016-019>022-027-251100-

SOUTHERN UTAH

CITY           SKY/WX    TMP DP  RH WIND       PRES   REMARKS
BRYCE CANYON   PTCLDY    -8 -13  78 CALM      30.03F
CEDAR CITY     CLEAR     17   8  67 NE7       30.05F WCI   8
MILFORD        CLEAR     16  11  80 CALM      30.08F
ST GEORGE      MOSUNNY   31  17  56 S3        30.14F
HANKSVILLE     CLEAR     14   1  57 CALM      30.14F
BLANDING       CLEAR     17   6  64 N5        30.14F WCI   9

$$

REGIONAL REPORTS     COLORADO/ARIZONA

CITY           SKY/WX    TMP DP  RH WIND       PRES   REMARKS
CRAIG, CO      FLURRIES  10   6  84 CALM      30.06F
GRAND JUNCTION CLEAR     17  15  92 E3        30.09F
RIFLE, CO      CLOUDY    11   9  92 CALM      30.09F
MONTROSE, CO   CLOUDY    15   9  76 S6        30.11S WCI   6
CORTEZ, CO     CLEAR     15  11  83 E5        30.08F WCI   8
COLORADO CITY    N/A     19  18  93 SE5       30.12F WCI  13
PAGE, AZ       CLEAR     30   5  34 VRB3      30.10S
GRAND CANYON   CLEAR     13  10  88 CALM      30.07F
KINGMAN, AZ    CLEAR     27   7  42 S6        30.11F WCI  20
FLAGSTAFF, AZ  CLEAR     17  10  74 W3        30.06F

$$

REGIONAL REPORTS    NEVADA/IDAHO/WYOMING

CITY           SKY/WX    TMP DP  RH WIND       PRES   REMARKS
LAS VEGAS, NV  CLEAR     40  21  46 CALM      30.09F
ELY, NY        CLOUDY     9   3  77 S8        30.04F WCI  -3
ELKO, NV       PTCLDY    19  13  77 E5        30.07S WCI  12
POCATELLO, ID  CLOUDY     9   3  77 VRB3      30.08F
BURLEY, ID     CLOUDY    22  11  62 SW9       30.08F WCI  12
FORT BRIDGER,    N/A     11   2  66 SW13      30.02F WCI  -4
EVANSTON, WY   CLOUDY     4  -1  80 S7        29.99F WCI  -8
ROCK SPRINGS,  CLOUDY     6   0  76 SW17      29.99F WCI -13

$$



USA.gov is the U.S. government's official web portal to all federal, state and local government web resources and services.